Location: Colossi of Memnon
(25.7167°N, 32.6167°E)
Time: 12:15:49
(UTC+00:00)

H-2A R/B - Pass Details

Date: 05 March 2021
Orbit: 578 x 654 km, 98.5° (Epoch: 22 April)

Event Time Altitude Azimuth Distance (km) Brightness Sun altitude
Rises 02:24:41 0° 155° (SSE) 2,905 5.8 -24.3°
Reaches altitude 10° 02:26:57 10° 150° (SSE) 1,989 4.9 -23.8°
Maximum altitude 02:31:06 49° 75° (ENE) 798 3.0 -22.8°
Drops below altitude 10° 02:35:12 10° 1° (N) 1,952 4.7 -21.9°
Sets 02:37:23 0° 356° (N) 2,845 5.5 -21.4°
